Regional Weather Roundup
Issued by NWS

Home | Current Version | Previous Version | Graphics & Text | Print | Product List | Glossary On
Versions: 1 2 3 4 5 6 7 8 9 10 11 12 13 14 15 16 17 18 19 20 21 22 23 24 25 26 27
000
ASUS45 KPSR 211910
RWRAZ

ARIZONA HOURLY REGIONAL WEATHER ROUNDUP
NATIONAL WEATHER SERVICE PHOENIX AZ
1200 PM MST SAT JAN 21 2017

NOTE: FAIR INDICATES FEW OR NO CLOUDS BELOW 12,000 FEET WITH NO
SIGNIFICANT WEATHER AND/OR OBSTRUCTIONS TO VISIBILITY.

AZZ001>003-036-212000-
NORTHWEST ARIZONA

CITY           SKY/WX    TMP DP  RH WIND       PRES   REMARKS
BULLHEAD CITY  SUNNY     57  34  41 SE8G15    29.78R
KINGMAN        SUNNY     44  28  53 SW17      29.76R
$$

AZZ004>008-015-016-018-212000-
NORTH CENTRAL ARIZONA

CITY           SKY/WX    TMP DP  RH WIND       PRES   REMARKS
GRAND CANYON   CLOUDY    28  26  92 W13       29.65R WCI  17
WILLIAMS       CLOUDY    28  23  80 W18       29.68R WCI  16
PRESCOTT       MOSUNNY   34  29  82 SW15      29.73R WCI  24
FLAGSTAFF      LGT SNOW  27  21  78 W13G22    29.65R WCI  16
PAGE           CLOUDY    44  24  45 W13G22    29.55R
$$

AZZ009>014-017-212000-
NORTHEAST ARIZONA

CITY           SKY/WX    TMP DP  RH WIND       PRES   REMARKS
WINSLOW        PTSUNNY   40  32  73 W16       29.63R WCI  31
SAINT JOHNS    CLOUDY    32  27  81 W20G28    29.61S WCI  20
SHOW LOW       PTSUNNY   28  23  80 SW21G28   29.64S WCI  15
$$

AZZ023-212000-
GREATER PHOENIX AREA

CITY           SKY/WX    TMP DP  RH WIND       PRES   REMARKS
PHOENIX        MOSUNNY   57  38  48 W20       29.78R
BUCKEYE        SUNNY     57  39  51 SW18      29.82R
GLENDALE       MOSUNNY   57  37  47 SW18      29.80R
LUKE AFB       SUNNY     56  38  50 W22       29.79R
DEER VALLEY    CLOUDY    53  37  54 W26       29.76R
SCOTTSDALE     PTSUNNY   54  38  54 SW15G24   29.80R
MESA-FALCON    MOSUNNY  N/A N/A N/A SW22      29.76R
MESA-GATEWAY   MOSUNNY   54  39  58 MISG      29.80R
CHANDLER       MOSUNNY   55  39  54 SW17G29   29.80R
$$

AZZ027-028-212000-
SOUTHWEST MARICOPA COUNTY AND PINAL COUNTY

CITY           SKY/WX    TMP DP  RH WIND       PRES   REMARKS
CASA GRANDE    SUNNY     54  38  54 W23G29    29.81S
$$

AZZ503-504-507>509-212000-
SOUTHEAST ARIZONA

CITY           SKY/WX    TMP DP  RH WIND       PRES   REMARKS
TUCSON         PTSUNNY   53  33  46 W23G32    29.85R
DAVIS-MONTHAN  LGT RAIN  52  34  51 W16G25    29.83R
RYAN FIELD     PTSUNNY   54  34  47 W23G32    29.85R
NOGALES        LGT RAIN  48  31  51 W18G29    29.85R
SIERRA VISTA   LGT RAIN  39  34  81 W17G36    29.81R WCI  30
DOUGLAS        PTSUNNY   48  28  46 W38G54    29.79S
SAFFORD        CLOUDY    48  36  63 NW23G33   29.72R
$$

AZZ020-021-025-026-031-212000-
SOUTHWEST ARIZONA

CITY           SKY/WX    TMP DP  RH WIND       PRES   REMARKS
YUMA           SUNNY     61  41  47 W18G25    29.89R
$$

CAZ031-033-041-043-047-048-061-212000-
SOUTHERN CALIFORNIA

CITY           SKY/WX    TMP DP  RH WIND       PRES   REMARKS
DOWNTOWN L.A.  SUNNY     60  42  51 W3        29.91R
L.A. AIRPORT   MOSUNNY   58  46  64 W24       29.92R
SAN DIEGO      RAIN      55  47  74 NW7       30.01R
BURBANK        SUNNY     55  35  47 W10       29.91R
ONTARIO        PTSUNNY   50  41  71 S5        29.93R
RIVERSIDE      PTSUNNY   53  43  68 E3        29.93R
PALM SPRINGS   SUNNY     60  33  36 NW15G22   29.86R
EL CENTRO NAS  SUNNY     61  41  47 W22       29.91R
IMPERIAL       SUNNY     61  43  51 W18G25    29.88R
BLYTHE         SUNNY     59  37  44 W15       29.84R
NEEDLES        SUNNY     60  31  33 N7        29.79R
$$

NVZ020-UTZ003-212000-
SOUTHERN NEVADA-UTAH

CITY           SKY/WX    TMP DP  RH WIND       PRES   REMARKS
LAS VEGAS      MOSUNNY   53  28  38 W8        29.73R
SALT LAKE CITY SNOW      32  30  92 W12       29.56R VSB 1/2 WCI  23
$$

NMZ009-TXZ055-212000-
NEW MEXICO-WEST TEXAS

CITY           SKY/WX    TMP DP  RH WIND       PRES   REMARKS
ALBUQUERQUE    CLOUDY    42  23  46 W28G39    29.49F
EL PASO        LGT RAIN  45  34  65 W24G48    29.65F
$$


........................KEY........................
SKY/WX - SKY CONDITION/WEATHER
TMP    - TEMPERATURE IN FAHRENHEIT
DP     - DEW POINT IN FAHRENHEIT
RH     - RELATIVE HUMIDITY IN PERCENT
WIND   - DIRECTION AND SPEED IN MILES PER HOUR (MPH)
VRB    - VARIABLE WIND DIRECTION
PRES   - MEAN SEA LEVEL PRESSURE IN INCHES OF MERCURY
         F - FALLING PRESSURE   R - RISING PRESSURE
         S - STEADY PRESSURE
VSB    - VISIBILITY IN MILES
HX     - HEAT INDEX IN FAHRENHEIT
WCI    - WIND CHILL INDEX IN FAHRENHEIT
TC     - TEMPERATURE IN CELSIUS WHICH IS ALSO KNOWN AS
         TEMPERATURE IN CENTIGRADE
AFB    - AIR FORCE BASE
         LUKE AFB IS LUKE AIR FORCE BASE
         DAVIS-MONTHAN IS DAVIS-MONTHAN AIR FORCE BASE
NAS    - NAVAL AIR STATION
         EL CENTRO NAS IS EL CENTRO NAVAL AIR STATION
N/A    - NOT AVAILABLE





USA.gov is the U.S. government's official web portal to all federal, state and local government web resources and services.